Retour au catalogue

STARLINK-4102

ActifCommunicationsVLEO
NORAD 53143·PAYLOAD·🇺🇸 United States

Lancé Jul 17, 2022 depuis Cape Canaveral Space Force Station

Loading…

Prochains Passages (prochaines 24 heures)

TLE

FraisSource: CelesTrak SupGP

Époque: Sep 14, 2026, 21:21 UTC

1 53143C 22083M   26257.89006944  .00312390  00000+0  78435-2 0  2576
2 53143  53.1608  36.2301 0000989  65.1368  54.2858 15.39271892    11

Suivez STARLINK-4102 en temps réel avec AllMySat

Download on the App Store